Flag for U.S.A. Weather past 2 weeks in Prudhoe Bay, Alaska, U.S.A.

-5 °F

Ice fog.

Feels Like: -31 °F
Forecast: -7 / 4 °F
Wind: 25 mph from Northeast

Location: Deadhorse Airport

Current Time: Nov 30, 2015 at 11:48:05 AM

Latest Report: Nov 30, 2015 at 10:53 AM

Visibility: 2 mi

Pressure: 30.03 "Hg

Humidity: 83%

Dew point: -9 °F

Location of Prudhoe BayLocation

Historic Weather in Prudhoe Bay — Graph


Prudhoe Bay temperature yesterday

Maximum temperature yesterday: 7 °F (at 12:53 AM)
Minimum temperature yesterday: 5 °F (at 10:53 PM)
Average temperature yesterday: 6 °F

Past Weeks' High & Low Weather Summary

High77 °F (Nov 22, 2:53 PM)92% (Nov 26, 2:53 AM)30.28 "Hg (Nov 26, 2:53 AM)
Low-27 °F (Nov 19, 6:53 AM)2% (Nov 22, 2:53 PM)29.41 "Hg (Nov 20, 4:53 AM)
Average-2 °F80%29.89 "Hg
* Reported Nov 15 9:53 AM — Nov 30 9:53 AM, Prudhoe Bay, Weather by CustomWeather, © 2015

Note: Actual official high and low records may vary slightly from our data, if they occured in-between our weather recording intervals... More about our weather records


Prudhoe Bay weather history for previous 24 hours

Time TempWeatherWind HumidityBarometerVisibility
9:53 AM
Mon, Nov 30
-4 °FIce fog.23 mph79%30.01 "Hg2 mi
8:53 AM-4 °FIce fog.24 mph79%30.01 "Hg2 mi
7:53 AM-4 °FIce fog.25 mph83%29.99 "Hg2 mi
6:53 AM-1 °FIce fog.23 mph82%29.98 "Hg2 mi
5:53 AM0 °FIce fog.23 mph83%29.97 "Hg2 mi
4:53 AM1 °FIce fog.24 mph83%29.96 "Hg2 mi
3:53 AM2 °FIce fog.22 mph88%29.95 "Hg2 mi
2:53 AM3 °FIce fog.25 mph84%29.94 "Hg2 mi
2:02 AM3 °FLight snow. Ice fog.26 mph84%29.93 "Hg1 mi
1:53 AM3 °FLight snow. Ice fog.26 mph84%29.93 "Hg2 mi
12:53 AM3 °FLight snow. Ice fog.24 mph87%29.93 "Hg2 mi
11:53 PM
Sun, Nov 29
5 °FLight snow. Ice fog.26 mph83%29.92 "Hg1 mi
10:53 PM5 °FLight snow. Ice fog.25 mph87%29.90 "Hg2 mi
9:53 PM6 °FLight snow. Ice fog.23 mph83%29.89 "Hg2 mi
8:53 PM6 °FLight snow. Ice fog.26 mph83%29.88 "Hg1 mi
7:53 PM6 °FLight snow. Ice fog.25 mph83%29.88 "Hg2 mi
6:53 PM6 °FLight snow. Ice fog.26 mph83%29.87 "Hg2 mi
5:53 PM6 °FLight snow. Ice fog.28 mph83%29.86 "Hg2 mi
4:53 PM6 °FLight snow. Ice fog.29 mph83%29.86 "Hg2 mi
4:00 PM6 °FLight snow. Ice fog.26 mph83%29.85 "Hg2 mi
2:53 PM6 °FLight snow. Ice fog.29 mph83%29.85 "Hg2 mi
12:53 PM6 °FLight snow. Ice fog.29 mph83%29.84 "Hg1 mi
11:53 AM6 °FLight snow. Ice fog.28 mph83%29.84 "Hg1 mi
Weather by CustomWeather, © 2015

See weather overviewHow to use our weather pages